FW7576 Weather Reports


time (UTC)temp
C
wind
direction
speed
KPH
gust
KPH
rain 1hr
cm
rain 24hr
cm
rain mn
cm
humidity
%
barometer
mb
20260507001543 10 307 4.8 19.3 0.00 0.00 0.00 43 1013.4
20260507000041 10 315 9.7 22.5 0.00 0.00 0.00 41 1013.3
20260506234544 10 231 4.8 19.3 0.00 0.00 0.00 42 1013.4
20260506233044 10 160 4.8 14.5 0.00 0.00 0.00 41 1013.2
20260506231539 10 299 8.0 22.5 0.00 0.00 0.00 41 1013.1
20260506230045 10 322 9.7 19.3 0.00 0.00 0.00 39 1013.2
20260506224536 10 293 6.4 17.7 0.00 0.00 0.00 41 1013.1
20260506223044 10 307 8.0 17.7 0.00 0.00 0.00 39 1012.9
20260506221539 10 219 8.0 17.7 0.00 0.00 0.00 40 1012.8
20260506220039 11 290 6.4 20.9 0.00 0.00 0.00 39 1012.8
20260506214541 11 328 3.2 19.3 0.00 0.00 0.00 39 1012.7
20260506213044 11 253 6.4 16.1 0.00 0.00 0.00 39 1012.9
20260506211536 11 233 6.4 17.7 0.00 0.00 0.00 39 1012.7
20260506210041 11 271 6.4 20.9 0.00 0.00 0.00 38 1012.7
20260506204538 11 245 4.8 14.5 0.00 0.00 0.00 39 1012.7
20260506203035 11 18 6.4 20.9 0.00 0.00 0.00 39 1012.7
20260506201536 11 268 9.7 17.7 0.00 0.00 0.00 39 1013.0
20260506200035 11 256 4.8 16.1 0.00 0.00 0.00 39 1013.0
20260506194539 11 255 4.8 14.5 0.00 0.00 0.00 39 1012.9
20260506193040 11 316 6.4 20.9 0.00 0.00 0.00 39 1012.8
20260506191541 11 294 8.0 17.7 0.00 0.00 0.00 39 1013.0
20260506190037 11 272 3.2 16.1 0.00 0.00 0.00 40 1013.2
20260506184547 11 274 8.0 17.7 0.00 0.00 0.00 39 1013.2
20260506183053 11 233 8.0 20.9 0.00 0.00 0.00 39 1013.1
20260506181608 11 204 4.8 20.9 0.00 0.00 0.00 41 1012.9
20260506180042 11 276 8.0 16.1 0.00 0.00 0.00 41 1012.9
20260506174541 11 263 8.0 17.7 0.00 0.00 0.00 41 1013.1
20260506173053 10 256 6.4 14.5 0.00 0.00 0.00 40 1013.2
20260506171535 10 325 8.0 24.1 0.00 0.00 0.00 39 1013.2
20260506170042 11 322 8.0 14.5 0.00 0.00 0.00 39 1013.4
20260506164543 10 296 6.4 20.9 0.00 0.00 0.00 42 1013.6
20260506163040 10 238 8.0 20.9 0.00 0.00 0.00 43 1013.5
20260506161538 10 282 6.4 17.7 0.00 0.00 0.00 41 1013.4
20260506160037 10 287 6.4 19.3 0.00 0.00 0.00 40 1013.5
20260506154537 10 258 6.4 12.9 0.00 0.00 0.00 40 1013.6
20260506153059 10 308 6.4 17.7 0.00 0.00 0.00 40 1013.5
20260506151544 10 266 6.4 16.1 0.00 0.00 0.00 41 1013.6
20260506150047 10 311 6.4 14.5 0.00 0.00 0.00 41 1013.4
20260506144538 10 304 6.4 17.7 0.00 0.00 0.00 44 1013.3
20260506143036 10 233 8.0 17.7 0.00 0.00 0.00 42 1013.3
20260506141537 10 233 8.0 20.9 0.00 0.00 0.00 42 1013.4
20260506140039 9 297 4.8 20.9 0.00 0.00 0.00 44 1013.4
20260506134538 9 234 4.8 12.9 0.00 0.00 0.00 45 1013.3
20260506133037 8 156 4.8 16.1 0.00 0.00 0.00 46 1013.3
20260506131539 8 255 4.8 11.3 0.00 0.00 0.00 47 1013.1
20260506130032 7 274 3.2 9.7 0.00 0.00 0.00 52 1013.1
20260506124534 7 242 3.2 9.7 0.00 0.00 0.00 53 1013.0
20260506123039 6 282 1.6 8.0 0.00 0.00 0.00 56 1012.8
20260506121538 5 259 1.6 6.4 0.00 0.00 0.00 58 1012.9
20260506120039 5 253 0.0 3.2 0.00 0.00 0.00 62 1013.0
20260506114536 3 280 0.0 1.6 0.00 0.00 0.00 64 1012.7
20260506113043 2 0 0.0 0.0 0.00 0.00 0.00 70 1012.4
20260506111539 1 0 0.0 0.0 0.00 0.00 0.00 73 1012.4
20260506110038 1 0 0.0 0.0 0.00 0.00 0.00 75 1012.1
20260506104536 1 0 0.0 0.0 0.00 0.00 0.00 75 1012.0
20260506103039 1 0 0.0 0.0 0.00 0.00 0.00 75 1011.7
20260506101535 1 0 0.0 0.0 0.00 0.00 0.00 75 1011.8
20260506100039 1 0 0.0 0.0 0.00 0.00 0.00 74 1011.8
20260506094540 1 0 0.0 0.0 0.00 0.00 0.00 72 1011.9
20260506093037 1 0 0.0 0.0 0.00 0.00 0.00 72 1012.0
20260506091536 1 0 0.0 0.0 0.00 0.00 0.00 73 1012.0
20260506090035 1 0 0.0 0.0 0.00 0.00 0.00 72 1012.0
20260506084539 2 0 0.0 0.0 0.00 0.00 0.00 71 1011.8
20260506083031 2 0 0.0 0.0 0.00 0.00 0.00 69 1011.7
20260506081540 2 0 0.0 1.6 0.00 0.00 0.00 69 1011.5
20260506073041 2 0 0.0 0.0 0.00 0.00 0.00 64 1011.2
20260506071542 3 0 0.0 0.0 0.00 0.00 0.00 63 1011.3
20260506061536 5 0 0.0 0.0 0.00 0.00 0.00 53 1011.5
20260506044538 6 0 0.0 1.6 0.00 0.00 0.00 46 1011.6
20260506043035 7 0 0.0 4.8 0.00 0.00 0.00 45 1011.4
20260506041538 7 0 0.0 4.8 0.00 0.00 0.00 43 1011.2
20260506040041 8 17 3.2 9.7 0.00 0.00 0.00 42 1011.0
20260506034544 8 36 6.4 17.7 0.00 0.00 0.00 41 1010.9
20260506033036 8 326 4.8 17.7 0.00 0.00 0.00 40 1011.0
20260506031535 8 37 6.4 12.9 0.00 0.00 0.00 40 1010.9
20260506030043 9 39 4.8 16.1 0.00 0.00 0.00 39 1010.8
20260506024557 9 360 6.4 14.5 0.00 0.00 0.00 39 1010.7
20260506023037 10 304 3.2 12.9 0.00 0.00 0.00 38 1010.5
20260506021536 10 340 3.2 8.0 0.00 0.00 0.00 37 1010.1
20260506020040 10 322 1.6 9.7 0.00 0.00 0.00 36 1009.9
20260506014535 10 303 3.2 11.3 0.00 0.00 0.00 35 1009.6
20260506013058 11 271 4.8 12.9 0.00 0.00 0.00 35 1009.3
20260506011541 11 345 4.8 20.9 0.00 0.00 0.00 34 1009.0
20260506010038 11 304 4.8 20.9 0.00 0.00 0.00 33 1008.9
20260506004536 11 29 4.8 12.9 0.00 0.00 0.00 33 1008.8
20260506003041 12 348 6.4 22.5 0.00 0.00 0.00 32 1008.6